Location: Del Amo
(33.8464°N, 118.2104°W)
Time: 23:55:13
(UTC+00:00)

S-56A Canister/Altair - Visible Passes

Search period start: 11 September 2024 00:00
Search period end: 21 September 2024 00:00
Orbit: 637 x 2487 km, 38.9° (Epoch: 11 September)

Date Brightness Start Highest point End Pass type
(mag) Time Alt. Az. Time Alt. Az. Time Alt. Az.
11 Sep 8.6 04:02:40 10° WSW 04:09:18 77° NNW 04:14:42 29° ENE visible
11 Sep 9.6 06:06:34 10° WNW 06:12:01 47° NW 06:12:01 47° NW visible
11 Sep 11.4 08:36:12 10° ESE 08:36:12 10° ESE 08:09:19 - WNW visible
11 Sep 10.6 10:33:39 31° S 10:33:39 31° S 10:41:02 10° SSE visible
11 Sep 11.0 12:31:07 13° SW 12:32:30 13° SW 12:38:02 10° SSW visible
12 Sep 8.4 03:29:06 10° WSW 03:35:15 82° NNW 03:42:22 18° ENE visible
12 Sep 9.2 05:32:50 10° WNW 05:39:40 62° NNW 05:39:40 62° NNW visible
12 Sep 11.1 07:36:48 10° WNW 07:36:58 11° WNW 07:36:58 11° WNW visible
12 Sep 11.1 10:03:00 20° SSE 10:03:00 20° SSE 10:06:42 10° SSE visible
12 Sep 11.0 12:00:27 15° SW 12:00:27 15° SW 12:05:42 10° SSW visible
13 Sep 8.2 02:55:32 10° WSW 03:01:17 89° NNW 03:09:59 10° ENE visible
13 Sep 9.0 04:59:07 10° W 05:06:22 64° N 05:07:17 61° NNE visible
13 Sep 10.7 07:02:58 10° WNW 07:04:35 18° WNW 07:04:35 18° WNW visible
13 Sep 11.5 09:32:10 10° SE 09:32:10 10° SE 09:32:13 10° SE visible
13 Sep 11.1 11:29:36 15° SSW 11:29:36 15° SSW 11:32:39 10° S visible
14 Sep 8.0 02:22:01 10° WSW 02:27:23 82° SSE 02:35:21 10° ENE visible
14 Sep 8.8 04:25:27 10° W 04:32:10 63° N 04:34:53 45° NE visible
14 Sep 10.2 06:29:11 10° WNW 06:32:11 28° WNW 06:32:11 28° WNW visible
14 Sep 11.4 10:58:33 11° S 10:58:33 11° S 10:59:11 10° S visible
15 Sep 8.7 03:51:48 10° W 03:58:01 62° N 04:02:28 31° ENE visible
15 Sep 9.7 05:55:28 10° WNW 05:59:46 40° WNW 05:59:46 40° WNW visible
16 Sep 8.5 03:18:10 10° W 03:23:57 62° N 03:30:02 20° ENE visible
16 Sep 9.1 05:21:46 10° WNW 05:27:20 56° NW 05:27:20 56° NW visible
17 Sep 8.3 02:44:33 10° W 02:49:57 64° N 02:57:37 11° ENE visible
17 Sep 8.7 04:48:07 10° WNW 04:54:55 66° N 04:54:55 66° N visible
17 Sep 10.9 06:51:38 10° WNW 06:52:13 13° WNW 06:52:13 13° WNW visible
18 Sep 8.2 02:10:56 10° W 02:16:01 67° NNW 02:23:18 10° ENE visible
18 Sep 8.6 04:14:29 10° WNW 04:20:50 63° N 04:22:30 52° NE visible
18 Sep 10.4 06:17:53 10° WNW 06:19:48 21° WNW 06:19:48 21° WNW visible
19 Sep 8.5 03:40:52 10° WNW 03:46:44 59° N 03:50:06 35° ENE visible
19 Sep 9.8 05:44:11 10° WNW 05:47:24 32° WNW 05:47:24 32° WNW visible
20 Sep 8.5 03:07:15 10° WNW 03:12:43 56° N 03:17:43 22° ENE visible
20 Sep 9.1 05:10:32 10° WNW 05:15:01 49° WNW 05:15:01 49° WNW visible
